www.weatherandclimate.eu
Time
(UTC), date
21 27.11
00 28.11
03 28.11
06 28.11
09 28.11
12 28.11
15 28.11
18 28.11
21 28.11
00 29.11
03 29.11
06 29.11
09 29.11
12 29.11
15 29.11
18 29.11
21 29.11
00 30.11
03 30.11
06 30.11
09 30.11
12 30.11
15 30.11
18 30.11
21 30.11
00 1.12
03 1.12
06 1.12
09 1.12
12 1.12
15 1.12
18 1.12
21 1.12
00 2.12
03 2.12
06 2.12
09 2.12
12 2.12
15 2.12
18 2.12
21 2.12
00 3.12
03 3.12
06 3.12
09 3.12
12 3.12
15 3.12
18 3.12
21 3.12
00 4.12
03 4.12
06 4.12
09 4.12
12 4.12
15 4.12
Wind
(dir.,m/s)
Visibility Phenomena Clouds Т
(С)
Тd
(С)
f
(%)
Тe
(С)
Тes
(С)
Comfort P
(hPa)
Po
hPa)
Тmin
(С)
Tmax
(С)
R
(mm)
R24
(mm)
S
(sm)
S 6
{14}
4000 m slightsnowshowers {drifting snow} 10/10 300 м
[Cb cap]
-7.2 -8.4 91 -15 -15 very cold 1013.2 1011.6
SW 8 4000 m slightsnowshowers {drifting snow} 10/10 300 м
[Cb cap]
-5.0 -6.3 91 -14 -14 very cold 1011.4 1009.5 -9.0 0.2 6
SW 8 4000 m slightsnowshowers {drifting snow} 10/10 300 м
[Cb cap]
-4.9 -6.1 91 -14 -14 very cold 1009.5 1007.8
SW 8-10
{12}
4000 m slightsnowshowers {drifting snow} 10/10 300 м
[Cb cap]
-4.4 -5.2 94 -13 -13 very cold 1008.2 1006.5
SW 8 20 km driftingsnow 9/4 300 м
[Sc Ac trans Ci fib]
-5.5 -6.5 93 -15 -15 very cold 1007.9 1006.2
SW 7
{11}
4000 m slightsnowshowers {drifting snow} 10/8 300 м
[Cb cap Ac und]
-5.6 -6.6 93 -14 -14 very cold 1006.7 1005.1 -3.6 0.0
SW 7 20 km driftingsnow 10/3 300 м
[Sc Ac trans Ci fib]
-6.4 -7.3 93 -15 -15 very cold 1004.9 1003.2
SW 5
{12}
4000 m slightsnowshowers {drifting snow} 9/5 300 м
[Cb cap Ci fib]
-6.2 -7.0 94 -14 -14 very cold 1003.3 1001.7
S 7-10
{11}
4000 m slightsnowshowers {drifting snow} 10/10 300 м
[Cb cap]
-6.1 -7.1 93 -15 -15 very cold 999.8 998.2
SW 10 4000 m slightsnowshowers {drifting snow} 10/10 300 м
[Cb cap]
-4.5 -5.4 93 -14 -14 very cold 996.2 994.5 -6.6 0.2 7
W 8-10
{13}
4000 m slightsnowshowers {drifting snow} 10/10 300 м
[Cb cap]
-5.1 -5.9 94 -14 -14 very cold 995.5 993.9
SW 10-12
{13}
4000 m slightsnowshowers {drifting snow} 10/10 300 м
[Cb cap]
-3.7 -4.4 95 -13 -13 very cold 993.2 991.5
W 11-14
{14}
4000 m slightsnow 10/10 100 м
[Frnb Ns]
-2.2 -2.8 96 -12 -12 very cold 990.9 989.2
W 10-14
{17}
4000 m slightsnow 10/10 100 м
[Frnb Ns]
-3.5 -4.5 93 -13 -13 very cold 991.2 989.5 -2.1
W 11 4000 m blizzard {snow, drifting snow} 8/8 600 м
[Sc]
-3.4 -4.5 92 -13 -13 very cold 989.6 988.0
SW 10-12
{14}
4000 m blizzard {snow, drifting snow} 10/10 300 м
[Sc]
-3.1 -4.0 93 -12 -12 very cold 987.2 985.6
SW 7
{13}
4000 m slightsnowshowers {drifting snow} 10/10 300 м
[Cb cap]
-3.1 -3.9 94 -11 -11 very cold 982.4 980.7
W 8 20 km driftingsnow 8/3 300 м
[Sc Ac trans]
-5.3 -7.1 87 -14 -14 very cold 982.0 980.3 -5.3 0.2 7
W 14 4000 m blizzard {drifting snow} 10/8 300 м
[Sc Ac und]
-5.3 -6.4 92 -16 -16 very cold 982.3 980.7 -5.8
W 9 20 km driftingsnow 4/3 600 м
[Sc Ac trans]
-6.9 -8.2 90 -17 -17 very cold 985.0 983.4
SW 8-11
{14}
20 km driftingsnow 10/10 300 м
[Sc]
-6.5 -7.7 91 -16 -16 very cold 984.9 983.3
S 13 500 m slightsnowshowers {drifting snow} 10/10 300 м
[Cb cap]
-5.6 -6.6 93 -17 -17 very cold 976.8 975.2 -5.0 0.7
W 8
{20}
10 km driftingsnow 9/6 300 м
[Sc Ac trans Ci fib]
-4.7 -5.6 93 -14 -14 very cold 973.3 971.7
N 8 20 km driftingsnow 9/4 600 м
[Sc Ac trans]
-5.2 -6.3 92 -14 -14 very cold 977.3 975.7
NW 10-13
{14}
10 km heavydriftingsnow 9/3 600 м
[Sc Ac trans]
-6.3 -8.1 87 -16 -16 very cold 981.7 980.1
W 10-12
{16}
20 km driftingsnow 9/5 600 м
[Sc Ac trans Ci fib]
-7.4 -9.6 84 -18 -18 very cold 983.7 982.0 -8.4 0.5
W 10-13
{13}
4000 m blizzard {drifting snow} 8/3 300 м
[Sc Ac trans Ci fib]
-8.0 -9.9 86 -18 -18 very cold 984.4 982.7
W 12-14
{18}
4000 m blizzard {drifting snow} 9/5 300 м
[Sc Ac trans Ci fib]
-7.7 -9.3 88 -19 -19 very cold 985.5 983.9
W 9-11
{16}
4000 m slightsnowshowers {drifting snow} 10/10 300 м
[Cb cap]
-7.9 -9.4 89 -18 -18 very cold 986.4 984.7
NW 6
{13}
20 km driftingsnow 9/6 300 м
[Sc Ac trans]
-7.5 -10.3 80 -16 -16 very cold 986.8 985.1 -7.0 0.3
W 4 20 km {drifting snow} 9/3 300 м
[Sc Ac trans Ci fib]
-10.5 -12.7 84 -18 -18 very cold 987.1 985.4
W 4 20 km {drifting snow} 6/3 300 м
[Sc Ac trans Ci fib]
-10.9 -12.9 85 -18 -18 very cold 987.6 986.0
NW 5 20 km 6/0
[Ac trans Ci fib]
-11.4 -13.7 83 -19 -19 very cold 989.1 987.4
W 5 20 km 8/3 300 м
[Sc Ac trans Ci fib]
-10.9 -13.4 82 -19 -19 very cold 990.1 988.4 -14.2 8
N 2 20 km 10/5 300 м
[Sc Ac und]
-8.9 -12.5 75 -13 -13 very cold 990.4 988.7
SW 2 20 km 10/10 300 м
[Sc]
-11.7 -13.4 87 -16 -16 very cold 990.2 988.5
SE 2 20 km 10/10 300 м
[Sc]
-11.5 -13.1 88 -16 -16 very cold 989.8 988.2
E 6 20 km 10/10 300 м
[Sc]
-12.1 -13.9 86 -21 -21 very cold 988.9 987.2 -8.9 0.0
E 7
{10}
4000 m slightsnowshowers {drifting snow} 10/8 300 м
[Cb cap Ac und]
-14.0 -15.8 86 -24 -24 very cold 988.2 986.5
NE 9 20 km driftingsnow 10/6 300 м
[Sc Ac und]
-15.4 -17.4 85 -27 -27 very cold 988.6 986.9
NE 11 4000 m blizzard {drifting snow} 8/6 300 м
[Sc Ci fib]
-15.1 -17.2 84 -28 -28 very cold 989.5 987.8
NE 8 20 km driftingsnow 9/8 300 м
[Sc Ci fib]
-15.0 -17.7 80 -26 -26 very cold 990.6 988.9 -15.7 0.2 8
N 6
{11}
20 km {drifting snow} 8/4 300 м
[Sc Ac trans Ci fib]
-15.7 -18.6 78 -25 -25 very cold 991.7 990.0
N 3 20 km {drifting snow} 10/6 300 м
[Sc Ac und]
-15.8 -18.5 80 -23 -23 very cold 993.3 991.6
NW 2 20 km 10/6 300 м
[Sc Ac und]
-16.8 -19.1 82 -22 -22 very cold 995.4 993.7
SW 6 20 km 10/10 300 м
[Sc]
-20.0 -22.5 80 -31 -31 risk of frostbite 996.8 995.0 -15.0
NW 5 20 km 10/8 300 м
[Sc Ac und]
-15.7 -18.4 80 -25 -25 very cold 998.0 996.3
NW 4 20 km 10/4 300 м
[Sc Ac trans Ci fib]
-16.3 -19.7 75 -24 -24 very cold 999.5 997.8
SW 2 20 km 10/5 600 м
[Sc Ac trans Ci fib]
-17.2 -20.1 78 -23 -23 very cold 1001.1 999.3
S 4 20 km 9/0
[Ac trans Ci fib]
-22.6 -25.4 78 -32 -32 risk of frostbite 1002.3 1000.5 -22.6 8
W 5 20 km 10/5 300 м
[Sc Ac trans Ci fib]
-18.9 -21.4 81 -29 -29 very cold 1002.3 1000.6 -22.7
SW 4 20 km 10/4 300 м
[Sc Ac trans Ci fib]
-19.7 -22.0 82 -29 -29 very cold 1002.6 1000.9
S 3 4000 m slightsnowshowers 9/9 300 м
[Cb cap]
-19.9 -22.3 81 -27 -27 very cold 1002.8 1001.0
SW 2 20 km 6/3 300 м
[Sc Ac trans Ci fib]
-19.6 -22.0 81 -25 -25 very cold 1002.0 1000.2 -18.6 0.1
S 4 20 km 8/3 300 м
[Sc Ac trans Ci fib]
-22.9 -25.5 79 -32 -32 risk of frostbite 1000.5 998.7
Weather station location Мыс Челюскин (Krasnoyarsk territory, Russia): latitude 77.72 longitude 104.30 Height above sea level 16 m.
The archive shows weather in на Мысе Челюскин for the last week. For the whole month and for the previous months, starting from January 2011, you can obtain archived data by selecting the date range of interest from the drop-down list and clicking the "Find!".
*Decide who are you:
Attention! The time in the tables is UTC. To get the local time, you must add an amendment that is equal to 7 h.
See also the weather archive in nearby cities and at nearby weather stations:
Partners of our site:
Column explanations:
  • Wind - indicated wind speed in m/s - average for 10 minutes, gusts in time and between periods (in brackets) and the direction from which the wind blows: N - North, NE - North-East, E - East, SE - South-East , S - South, SW - South-West, W - West, NW - North-West.
  • Visibility - horizontal visibility range in meters or kilometers. When visibility is from 1 to 10 km in the absence of precipitation, haze is usually observed, and when visibility is reduced to 1 km or less, fog is observed. In dry weather, visibility may be reduced by smoke, dust, or haze.
  • Phenomena - atmospheric phenomena observed during the period or in the last hour before the period are indicated; curly brackets indicate phenomena observed between periods (1-3 hours before the period); square brackets indicate hail or ice deposits with their diameter in mm.
  • Clouds - are through slash total and lower clouds in points, and the height of the lower border of the cloud in meters; square brackets contain cloud forms: Ci - Cirrus, Cs - Cirrostratus, Cc - Cirrocumulus, Ac - Altocumulus, As - Altostratus, Sc - Stratocumulus, Ns - Nimbostratus, Cu - Cumulus, Cb - Cumulonimbus. For more information about cloud classification, see the cloud Atlas (PDF).
  • T - Air temperature - temperature measured at a height of 2 m above the ground.
  • Td - Dew point temperature - the temperature is lowered to that contained in the air, the water vapor reaches saturation.
  • f - Relative humidity measured at a height of 2 m above the ground.
  • Te - Effective temperature is the temperature that a seasonally dressed person feels in the shade. Characteristic of stuffy weather. The calculation takes into account the influence of air humidity and wind speed on a person’s heat.
  • Tes - Effective sun temperature - the temperature that a person feels, adjusted for solar heating. Characteristics of the sultry weather. Depends on the height of the sun above the horizon, cloud cover and wind speed. At night, in cloudy weather, as well as in winds of 12 m/s or more, the correction is zero.
  • P - Atmospheric pressure - atmospheric pressure reduced to sea level.
  • Po - Atmospheric pressure - atmospheric pressure measured at the station level.
  • Tmin - Minimum temperature - minimum air temperature at a height of 2 m above the ground.
  • Tmax - Maximum temperature - maximum air temperature at a height of 2 m above the ground.
  • R - Precipitation - The amount of precipitation over a period of time, mm. When you hover over the number, the time period for which the specified amount of precipitation has fallen.
  • R24 - Количество осадков - The amount of precipitation in 24 hours, mm.
  • S - Snow cover - The height of the snow cover. When you hover the mouse over the number - the state of the snow cover and the degree of coverage in points.